Retour au catalogue

ABS 2

ActifCommunicationsGEO
NORAD 39508·PAYLOAD·🇦🇪 UAE🇧🇲 BM

Lancé Feb 6, 2014 depuis Guiana Space Centre

Loading…

TLE

FraisSource: Space-Track

Époque: Sep 14, 2026, 14:09 UTC

1 39508U 14006A   26257.59000774 -.00000095  00000-0  00000-0 0  9995
2 39508   0.0215 247.9232 0003298 284.4770 108.5020  1.00275411 46173

Suivez ABS 2 en temps réel avec AllMySat

Download on the App Store